Regional Weather Roundup
Issued by NWS State College, PA

Home | Current Version | Previous Version | Graphics & Text | Print | Product List | Glossary On
Versions: 1 2 3 4 5 6 7 8 9 10 11 12 13 14 15 16 17 18 19 20 21 22 23 24 25 26 27 28 29 30 31 32 33 34 35 36 37 38 39 40 41 42 43 44 45 46 47 48 49 50
000
ASUS41 KCTP 181410
RWRCTP

REGIONAL WEATHER ROUNDUP
NATIONAL WEATHER SERVICE STATE COLLEGE PA
900 AM EST THU DEC 18 2014

Note: "fair" indicates few or no clouds below 12,000 feet with no
significant weather and/or obstructions to visibility.

* = STATION THAT DOES NOT REPORT PRECIPITATION /E.G. RAIN...SNOW...ETC/
    THUNDER OR FOG.

PAZ002>004-007>009-013>016-020>023-029>032-181500-
WESTERN PENNSYLVANIA

CITY           SKY/WX    TMP DP  RH WIND       PRES   REMARKS
ERIE           CLOUDY    32  24  72 W10G20    30.16R
MEADVILLE      CLOUDY    28  23  81 W10       30.13R
FRANKLIN*      CLOUDY    27  19  74 SW8       30.14R
NEW CASTLE       N/A     28  22  78 W6        30.19R
BEAVER COUNTY  CLOUDY    28  21  74 W9        30.18R
BUTLER*        CLOUDY    27  19  74 W9        30.18R
PITTSBURGH INT CLOUDY    28  21  75 W8        30.18R
PITTSBURGH     CLOUDY    27  18  69 W8        30.17R
INDIANA*       CLOUDY    27  23  86 W7        30.18R
LATROBE        CLOUDY   N/A N/A N/A W14       30.18R
WASHINGTON CO* CLOUDY    27  19  74 W6        30.20S
$$

PAZ004>006-010>012-017>019-024>028-033>037-041-042-045-046-049>053-181500-
CENTRAL PENNSYLVANIA

CITY           SKY/WX    TMP DP  RH WIND       PRES   REMARKS
BRADFORD       CLOUDY    25  22  88 W10       30.03F WCI  15
DUBOIS         CLOUDY    25  23  92 W10       30.07F FOG     WCI  15
CLEARFIELD     CLOUDY    28  21  75 W7        30.09S
JOHNSTOWN      CLOUDY    23  18  81 W8G18     30.07R WCI  14
ALTOONA        FLURRIES  27  21  78 NW10      30.11R
STATE COLLEGE  CLOUDY    28  21  74 W8G17     30.09S
WILLIAMSPORT   CLOUDY    35  21  56 NW15      30.08R
SELINSGROVE    CLOUDY    34  22  61 W9        30.10S
FT INDIANTOWN  CLOUDY    32  23  69 NW8       30.09S
CAPITAL CITY   CLOUDY    34  21  59 W10       30.12R
HARRISBURG     CLOUDY    34  21  59 NW16      30.11R
YORK           CLOUDY    34  20  56 NW10      30.11S
$$

PAZ038>040-043-044-047-048-054-055-060>062-067>071-181500-
EASTERN PENNSYLVANIA

CITY           SKY/WX    TMP DP  RH WIND       PRES   REMARKS
SCRANTON       CLOUDY    34  22  61 NW18      30.02R
MOUNT POCONO   CLOUDY    29  20  69 NW22G33   29.93R
ALLENTOWN      CLOUDY    37  20  50 W14G20    30.04R
QUAKERTOWN*    CLOUDY    36  21  55 NW13      30.05R
READING        CLOUDY    35  22  58 NW15      30.08R
LANCASTER      CLOUDY    33  21  61 NW20G25   30.09R
COATESVILLE    CLOUDY    34  23  64 NW14      30.08R
POTTSTOWN      CLOUDY    34  22  61 W9        30.08R
BLUE BELL      CLOUDY    36  23  60 W5        30.06R
DOYLESTOWN     CLOUDY    34  22  61 W8        30.04R
WILLOW GROVE   NOT AVBL
NORTH PHILA    CLOUDY    38  20  48 W14       30.08R
PHILADELPHIA   PTSUNNY   37  20  50 W14       30.10R
$$


USA.gov is the U.S. government's official web portal to all federal, state and local government web resources and services.